Weather History for Eureka, NV

Change the Weather History Date:

Sunday, May 19, 2013

  Actual Average Record
Temperature  
Mean Temperature 50 °F 53 °F  
Max Temperature 61 °F 71 °F 91 °F (2008)
Min Temperature 38 °F 35 °F 22 °F (1989)
Degree Days  
Heating Degree Days 15 12  
Month to date heating degree days 228 280  
Since 1 July heating degree days 6642 7084  
Cooling Degree Days 0 0  
Month to date cooling degree days 1 0  
Year to date cooling degree days 1 0  
Moisture  
Dew Point 31 °F    
Average Humidity 59    
Maximum Humidity 92    
Minimum Humidity 25    
Precipitation  
Precipitation 0.01 in 0.03 in 0.23 in (1987)
Month to date precipitation 0.50 0.47  
Year to date precipitation 2.98 3.97  
Sea Level Pressure  
Sea Level Pressure 30.06 in    
Wind  
Wind Speed 11 mph (North)    
Max Wind Speed 24 mph    
Max Gust Speed 31 mph    
T = Trace of Precipitation, MM = Missing Value Source: NWS Daily Summary

Daily Weather History Graph

Daily Weather History Graph

Search for Another Location

Airport:

Trip Planner

Search our weather history database for the weather conditions in past years. The results will help you decide how hot, cold, wet, or windy it might be!

Date:

Astronomy

May. 19, 2013 Rise Set
Actual Time 5:26 AM PDT 7:55 PM PDT
Civil Twilight 4:55 AM PDT 8:26 PM PDT
Nautical Twilight 4:17 AM PDT 9:04 PM PDT
Astronomical Twilight 3:34 AM PDT 9:47 PM PDT
Moon 2:05 PM PDT (5/19) 1:50 AM PDT (5/19)
Length of Visible Light 15h 31m
Length of Day
14h 29m
Waxing Gibbous, 66% of the Moon is Illuminated
May 19
Waxing Gibbous
May 24
Full
May 31
Last Quarter
Jun 8
New
Jun 16
First Quarter

Hourly Weather History & Observations

Time (PDT) Temp. Windchill Dew Point Humidity Pressure Visibility Wind Dir Wind Speed Gust Speed Precip Events Conditions
12:53 AM 41.0 °F 39.0 °F 34.0 °F 76% 29.99 in - Variable 3.5 mph - N/A   Unknown
1:53 AM 44.1 °F 40.8 °F 35.1 °F 71% 29.99 in - South 5.8 mph - N/A   Unknown
2:53 AM 46.9 °F - 34.0 °F 61% 29.97 in - NW 10.4 mph - N/A   Unknown
3:53 AM 44.1 °F 37.4 °F 37.0 °F 76% 30.00 in - North 13.8 mph - N/A   Unknown
4:53 AM 41.0 °F 35.2 °F 37.0 °F 86% 30.03 in - NNE 9.2 mph - N/A   Unknown
5:53 AM 39.9 °F 35.8 °F 36.0 °F 86% 30.05 in - North 5.8 mph - N/A   Unknown
6:53 AM 39.9 °F - 37.0 °F 89% 30.07 in - Calm Calm - 0.01 in   Unknown
7:53 AM 42.1 °F - 37.0 °F 82% 30.10 in - Calm Calm - N/A   Unknown
8:53 AM 50.0 °F - 36.0 °F 59% 30.09 in - North 15.0 mph 23.0 mph N/A   Unknown
9:53 AM 51.1 °F - 30.9 °F 46% 30.08 in - North 19.6 mph 25.3 mph N/A   Unknown
10:53 AM 54.0 °F - 32.0 °F 43% 30.09 in - North 11.5 mph 21.9 mph N/A   Unknown
11:53 AM 55.0 °F - 32.0 °F 42% 30.08 in - NE 13.8 mph - N/A   Unknown
12:53 PM 57.0 °F - 28.0 °F 33% 30.07 in - NNW 19.6 mph 27.6 mph N/A   Unknown
1:53 PM 57.9 °F - 26.1 °F 30% 30.04 in - North 18.4 mph 24.2 mph N/A   Unknown
2:53 PM 59.0 °F - 25.0 °F 27% 30.02 in - NNW 18.4 mph 25.3 mph N/A   Unknown
3:53 PM 59.0 °F - 26.1 °F 28% 30.02 in - NNE 19.6 mph 27.6 mph N/A   Unknown
4:53 PM 57.0 °F - 23.0 °F 27% 30.04 in - NNW 19.6 mph 25.3 mph N/A   Unknown
5:53 PM 57.9 °F - 23.0 °F 26% 30.05 in - North 17.3 mph 26.5 mph N/A   Unknown
6:53 PM 54.0 °F - 28.0 °F 37% 30.06 in - North 11.5 mph - N/A   Unknown
7:53 PM 50.0 °F - 28.9 °F 44% 30.09 in - North 6.9 mph - N/A   Unknown
8:53 PM 45.0 °F 42.6 °F 28.0 °F 52% 30.09 in - NW 4.6 mph - N/A   Unknown
9:53 PM 45.0 °F 41.8 °F 27.0 °F 49% 30.11 in - NNE 5.8 mph - N/A   Unknown
10:53 PM 42.1 °F 35.7 °F 25.0 °F 51% 30.11 in - North 11.5 mph - N/A   Unknown
11:53 PM 41.0 °F 37.1 °F 26.1 °F 55% 30.12 in - ESE 5.8 mph - N/A   Unknown